Location: Hurstbourne Priors
(51.2000°N, 1.3667°W)
Time: 18:31:09
(UTC+00:00)

ERS-1 Rocket - Pass Details

Date: 09 April 2020
Orbit: 753 x 757 km, 98.5° (Epoch: 25 May)

Event Time Altitude Azimuth Distance (km) Brightness Sun altitude
Exits shadow 22:26:59 30° 243° (WSW) 1,335 4.2 -27.0°
Maximum altitude 22:27:55 32° 265° (W) 1,276 4.3 -27.1°
Drops below altitude 10° 22:32:26 10° 328° (NNW) 2,293 6.4 -27.4°
Sets 22:34:59 0° 339° (NNW) 3,222 7.5 -27.6°
